{"data":{"norad_id":67867,"intl_designator":"2026-034T","name":"STARLINK-36761","alt_names":[],"object_type":"PAYLOAD","status":"ACTIVE","operator":null,"country":"US","launch_date":"2026-02-20","launch_site_code":"AFETR","launch_vehicle":null,"mission":null,"orbit_class":"UNKNOWN","rcs_meters":null,"size_class":null,"mass_kg":null,"dimensions":null,"purposes":["comms"],"wikipedia_slug":null,"has_3d_model":false,"image_url":null,"decayed_at":null,"tle_current":{"epoch":"2026-05-25T03:51:50.895072Z","epoch_age_seconds":68052,"freshness":"FRESH","line1":"1 67867U 26034T   26145.16100573  .00012826  00000+0  44436-3 0  9992","line2":"2 67867  53.1584 209.0472 0001237  87.4727 272.6415 15.30203327 15744","mean_motion":15.30203327,"eccentricity":0.0001237,"inclination_deg":53.1584,"raan_deg":209.0472,"arg_perigee_deg":87.4727,"mean_anomaly_deg":272.6415,"bstar":0.00044436,"rev_number":1574,"period_min":94.105141100638,"perigee_km":474.35737719284,"apogee_km":476.05289403719,"semimajor_km":6853.342135615,"source":"CELESTRAK","updated_at":"2026-05-25T13:38:21.728472Z"}}}